KPAWILLO7 Weather Reports


time (UTC)temp
F
wind
direction
speed
knots
gust
knots
rain 1hr
in
rain 24hr
in
rain mn
in
humidity
%
barometer
mb
20260507021504 64 2 3.5 7.0 0.11 0.15 0.15 88 1009.5
20260507021004 64 1 3.5 4.3 0.11 0.15 0.15 88 1009.8
20260507020503 64 2 3.5 5.2 0.10 0.14 0.14 87 1009.5
20260507015503 65 1 3.5 6.1 0.04 0.08 0.08 84 1009.8
20260507014503 66 1 3.5 6.1 0.00 0.04 0.04 81 1009.6
20260507014003 66 1 2.6 3.5 0.00 0.04 0.04 81 1009.4
20260507013503 66 1 1.7 3.5 0.00 0.04 0.04 80 1009.6
20260507012504 66 1 1.7 2.6 0.00 0.04 0.04 80 1009.4
20260507012003 66 1 1.7 1.7 0.00 0.04 0.04 80 1009.3
20260507011503 66 1 1.7 2.6 0.00 0.04 0.04 80 1009.2
20260507011004 66 1 2.6 3.5 0.00 0.04 0.04 80 1009.3
20260507010503 66 1 2.6 5.2 0.00 0.04 0.04 80 1009.4
20260507010003 66 1 2.6 5.2 0.00 0.04 0.04 80 1009.4
20260507005504 66 1 2.6 5.2 0.00 0.04 0.04 80 1009.6
20260507005004 66 1 2.6 2.6 0.00 0.04 0.04 79 1009.3
20260507004503 66 1 2.6 4.3 0.00 0.04 0.04 79 1009.0
20260507004003 66 2 2.6 4.3 0.00 0.04 0.04 78 1008.9
20260507003503 67 1 2.6 3.5 0.00 0.04 0.04 78 1008.9
20260507003004 67 1 3.5 3.5 0.00 0.04 0.04 78 1008.7
20260507002503 67 1 3.5 4.3 0.00 0.04 0.04 78 1008.8
20260507001503 67 1 3.5 4.3 0.00 0.04 0.04 78 1008.7
20260507001004 67 1 3.5 4.3 0.00 0.04 0.04 78 1008.7
20260507000503 67 1 2.6 4.3 0.00 0.04 0.04 78 1008.6
20260507000003 67 1 2.6 4.3 0.00 0.04 0.04 78 1008.4
20260506235503 67 1 1.7 4.3 0.00 0.04 0.04 77 1008.5
20260506234504 67 1 3.5 5.2 0.00 0.04 0.04 77 1008.7
20260506234003 67 2 3.5 4.3 0.00 0.04 0.04 77 1008.6
20260506233503 67 2 3.5 6.1 0.00 0.04 0.04 77 1008.5
20260506233004 67 1 3.5 6.1 0.00 0.04 0.04 76 1008.5
20260506232503 67 1 3.5 6.1 0.00 0.04 0.04 76 1008.5
20260506232003 67 1 3.5 5.2 0.00 0.04 0.04 76 1008.6
20260506231504 68 2 3.5 5.2 0.00 0.04 0.04 76 1008.5
20260506231003 68 1 3.5 4.3 0.00 0.04 0.04 76 1008.5
20260506230503 68 1 2.6 4.3 0.00 0.04 0.04 76 1008.5
20260506230003 68 1 2.6 3.5 0.00 0.04 0.04 75 1008.4
20260506225504 68 1 2.6 4.3 0.00 0.04 0.04 75 1008.4
20260506225003 68 2 2.6 4.3 0.00 0.04 0.04 76 1008.2
20260506224503 68 1 2.6 4.3 0.00 0.04 0.04 76 1008.4
20260506224003 68 2 4.3 8.7 0.00 0.04 0.04 76 1008.4
20260506223504 68 2 4.3 8.7 0.00 0.04 0.04 75 1008.3
20260506223003 68 1 4.3 8.7 0.00 0.04 0.04 75 1008.2
20260506222503 68 1 5.2 5.2 0.00 0.04 0.04 75 1008.2
20260506221504 68 2 4.3 6.1 0.00 0.04 0.04 75 1008.4
20260506220503 68 2 5.2 7.8 0.00 0.04 0.04 75 1008.3
20260506220004 68 1 4.3 7.0 0.00 0.04 0.04 75 1008.1
20260506215503 68 2 5.2 7.0 0.00 0.04 0.04 76 1008.1
20260506215003 68 1 5.2 7.8 0.00 0.04 0.04 77 1008.3
20260506214504 67 2 5.2 7.8 0.00 0.04 0.04 77 1008.2
20260506214003 67 2 4.3 7.8 0.00 0.04 0.04 77 1008.2
20260506213503 67 1 3.5 6.1 0.00 0.04 0.04 78 1008.1
20260506213004 67 1 3.5 6.1 0.00 0.04 0.04 78 1008.1
20260506212504 67 1 4.3 6.1 0.00 0.04 0.04 77 1008.1
20260506211504 67 1 4.3 7.8 0.00 0.04 0.04 77 1008.0
20260506211004 67 2 4.3 7.8 0.00 0.04 0.04 77 1008.0
20260506210503 67 1 4.3 7.8 0.00 0.04 0.04 78 1007.9
20260506205504 66 1 5.2 8.7 0.00 0.04 0.04 78 1008.0
20260506205003 66 2 7.0 11.3 0.00 0.04 0.04 79 1007.9
20260506204503 66 2 7.0 11.3 0.00 0.04 0.04 79 1007.9
20260506204003 66 1 7.8 7.8 0.00 0.04 0.04 79 1007.9
20260506203003 65 1 6.1 11.3 0.00 0.04 0.04 80 1007.8
20260506202004 65 1 5.2 5.2 0.00 0.04 0.04 80 1007.9
20260506201504 65 2 5.2 7.8 0.00 0.04 0.04 80 1007.9
20260506201003 65 1 7.0 7.8 0.00 0.04 0.04 80 1007.8
20260506200503 65 1 7.0 7.8 0.00 0.04 0.04 80 1008.0
20260506200004 65 2 6.1 7.0 0.00 0.04 0.04 81 1008.0
20260506195503 64 1 4.3 7.0 0.00 0.04 0.04 81 1008.1
20260506195003 64 1 4.3 4.3 0.00 0.04 0.04 82 1008.1
20260506194003 64 2 6.1 13.0 0.00 0.04 0.04 82 1008.1
20260506193503 64 1 5.2 13.0 0.00 0.04 0.04 82 1008.3
20260506193004 64 1 4.3 9.6 0.00 0.04 0.04 82 1008.4
20260506192004 63 1 6.1 8.7 0.00 0.04 0.04 82 1008.4
20260506191503 63 2 5.2 8.7 0.00 0.04 0.04 83 1008.5
20260506191004 63 2 5.2 8.7 0.00 0.04 0.04 83 1008.5
20260506190504 63 2 5.2 8.7 0.00 0.04 0.04 83 1008.4
20260506190004 63 1 4.3 5.2 0.00 0.04 0.04 83 1008.5
20260506185503 63 1 4.3 5.2 0.00 0.04 0.04 83 1008.6
20260506185003 63 2 6.1 11.3 0.00 0.04 0.04 83 1008.6
20260506184504 63 1 6.1 11.3 0.00 0.04 0.04 83 1008.7
20260506184003 63 1 6.1 12.2 0.00 0.04 0.04 83 1008.7
20260506182504 63 2 5.2 11.3 0.00 0.04 0.04 83 1008.8
20260506182003 63 1 5.2 11.3 0.00 0.04 0.04 83 1008.8
20260506181503 63 1 6.1 6.1 0.00 0.04 0.04 82 1008.8
20260506180503 63 2 6.1 8.7 0.00 0.04 0.04 83 1008.8
20260506180004 63 1 4.3 8.7 0.00 0.04 0.04 83 1008.8
20260506175503 63 1 3.5 3.5 0.00 0.04 0.04 84 1008.8
20260506175004 63 2 3.5 5.2 0.00 0.04 0.04 84 1009.0
20260506174503 63 1 4.3 7.8 0.00 0.04 0.04 84 1008.9
20260506173004 63 1 6.1 16.5 0.00 0.04 0.04 84 1009.0
20260506172503 63 1 5.2 16.5 0.00 0.04 0.04 84 1009.1
20260506172003 63 1 4.3 6.1 0.01 0.04 0.04 84 1009.2
20260506171504 63 1 3.5 5.2 0.01 0.04 0.04 86 1009.1
20260506171003 63 2 3.5 5.2 0.01 0.04 0.04 86 1009.2
20260506170504 63 1 3.5 5.2 0.02 0.04 0.04 86 1009.0
20260506170004 63 2 3.5 7.8 0.02 0.04 0.04 87 1009.2
20260506165503 62 1 3.5 7.8 0.02 0.04 0.04 87 1009.0
20260506165003 62 2 2.6 4.3 0.02 0.04 0.04 87 1009.0
20260506164504 62 1 2.6 3.5 0.03 0.04 0.04 87 1009.3
20260506164004 62 1 2.6 2.6 0.03 0.04 0.04 87 1009.2
20260506163003 62 1 1.7 2.6 0.04 0.04 0.04 87 1009.4
20260506162503 62 1 1.7 1.7 0.04 0.04 0.04 87 1009.6
20260506162003 62 1 1.7 3.5 0.03 0.03 0.03 86 1009.9
20260506161503 62 2 3.5 5.2 0.03 0.03 0.03 86 1010.1
20260506161003 62 1 3.5 5.2 0.03 0.03 0.03 85 1010.3
20260506160504 62 1 4.3 7.0 0.02 0.02 0.02 84 1010.4
20260506160004 62 1 4.3 7.0 0.02 0.02 0.02 84 1010.5
20260506155503 62 2 3.5 6.1 0.02 0.02 0.02 83 1010.6
20260506155003 62 2 2.6 7.0 0.02 0.02 0.02 83 1010.6
20260506154504 63 2 3.5 7.0 0.01 0.01 0.01 82 1010.6
20260506154003 63 1 2.6 5.2 0.01 0.01 0.01 82 1010.6
20260506153503 63 1 3.5 5.2 0.01 0.01 0.01 81 1010.4
20260506153003 63 1 4.3 6.1 0.00 0.00 0.00 80 1010.4
20260506152504 64 2 5.2 7.0 0.00 0.00 0.00 79 1010.6
20260506152003 64 1 5.2 7.0 0.00 0.00 0.00 76 1010.5
20260506151503 65 1 5.2 7.0 0.00 0.00 0.00 75 1010.6
20260506151004 65 1 4.3 7.0 0.00 0.00 0.00 73 1010.3
20260506145503 66 1 4.3 6.1 0.00 0.00 0.00 72 1010.3
20260506145003 66 1 4.3 6.1 0.00 0.00 0.00 72 1010.4
20260506144504 66 2 5.2 6.1 0.00 0.00 0.00 70 1010.5
20260506144004 66 1 5.2 6.1 0.00 0.00 0.00 69 1010.6
20260506143004 67 2 6.1 9.6 0.00 0.00 0.00 67 1010.5
20260506142505 67 1 7.0 7.8 0.00 0.00 0.00 67 1010.6
20260506142003 67 1 7.8 9.6 0.00 0.00 0.00 67 1010.5
20260506141504 67 2 6.1 9.6 0.00 0.00 0.00 67 1010.5
20260506140503 67 1 5.2 6.1 0.00 0.00 0.00 67 1010.4
20260506140003 68 2 3.5 4.3 0.00 0.00 0.00 67 1010.5
20260506135504 67 1 4.3 7.0 0.00 0.00 0.00 67 1010.3
20260506135003 67 1 5.2 7.8 0.00 0.00 0.00 68 1010.3
20260506134503 66 1 5.2 7.8 0.00 0.00 0.00 69 1010.4
20260506134003 66 1 4.3 7.8 0.00 0.00 0.00 69 1010.5
20260506133504 66 2 4.3 6.1 0.00 0.00 0.00 70 1010.4
20260506133004 66 1 6.1 6.1 0.00 0.00 0.00 70 1010.4
20260506132503 66 1 6.1 6.1 0.00 0.00 0.00 69 1010.6
20260506132003 66 2 7.0 12.2 0.00 0.00 0.00 70 1010.4
20260506131504 66 2 6.1 12.2 0.00 0.00 0.00 70 1010.6
20260506131003 66 1 6.1 10.4 0.00 0.00 0.00 69 1010.8
20260506130503 66 2 6.1 13.0 0.00 0.00 0.00 69 1010.7
20260506130004 66 1 6.1 13.0 0.00 0.00 0.00 69 1010.9
20260506125503 66 2 5.2 8.7 0.00 0.00 0.00 70 1010.7
20260506125003 66 2 5.2 9.6 0.00 0.00 0.00 70 1010.6
20260506124503 66 1 5.2 9.6 0.00 0.00 0.00 71 1010.6
20260506124004 65 2 4.3 9.6 0.00 0.00 0.00 71 1010.7
20260506123503 65 2 3.5 6.1 0.00 0.00 0.00 71 1010.5
20260506123003 65 2 3.5 6.1 0.00 0.00 0.00 71 1010.4
20260506122503 65 1 3.5 4.3 0.00 0.00 0.00 71 1010.5
20260506122005 65 2 3.5 8.7 0.00 0.00 0.00 72 1010.3
20260506121503 65 2 4.3 8.7 0.00 0.00 0.00 72 1010.3
20260506121003 65 1 3.5 8.7 0.00 0.00 0.00 72 1010.5
20260506120503 64 1 3.5 4.3 0.00 0.00 0.00 73 1010.6
20260506120004 64 1 3.5 3.5 0.00 0.00 0.00 73 1010.5
20260506115503 64 2 3.5 7.0 0.00 0.00 0.00 73 1010.5
20260506115003 64 2 3.5 7.0 0.00 0.00 0.00 73 1010.5
20260506114504 64 1 3.5 7.0 0.00 0.00 0.00 74 1010.5
20260506114003 64 1 2.6 5.2 0.00 0.00 0.00 74 1010.4
20260506113503 64 1 2.6 5.2 0.00 0.00 0.00 74 1010.4
20260506113005 64 1 3.5 7.0 0.00 0.00 0.00 74 1010.4
20260506112003 64 2 3.5 7.8 0.00 0.00 0.00 74 1010.5
20260506111503 64 2 2.6 4.3 0.00 0.00 0.00 74 1010.5
20260506110004 64 1 2.6 4.3 0.00 0.00 0.00 75 1010.4
20260506105503 64 1 3.5 4.3 0.00 0.00 0.00 75 1010.3
20260506105003 64 1 3.5 4.3 0.00 0.00 0.00 75 1010.3
20260506104504 64 2 2.6 4.3 0.00 0.00 0.00 75 1010.3
20260506104003 64 1 3.5 6.1 0.00 0.00 0.00 75 1010.2
20260506103503 64 2 3.5 6.1 0.00 0.00 0.00 75 1010.4
20260506103003 64 1 3.5 6.1 0.00 0.00 0.00 76 1010.3
20260506102504 63 1 2.6 3.5 0.00 0.00 0.00 76 1010.2
20260506102003 63 2 2.6 5.2 0.00 0.00 0.00 76 1010.3
20260506100505 64 2 3.5 6.1 0.00 0.00 0.00 76 1010.3
20260506100003 63 2 3.5 6.1 0.00 0.00 0.00 76 1010.3
20260506095503 63 1 2.6 6.1 0.00 0.00 0.00 76 1010.3
20260506095003 64 1 2.6 4.3 0.00 0.00 0.00 76 1010.2
20260506094503 64 2 3.5 4.3 0.00 0.00 0.00 76 1010.1
20260506094003 64 1 3.5 5.2 0.00 0.00 0.00 76 1010.1
20260506093004 64 2 3.5 5.2 0.00 0.00 0.00 75 1010.1
20260506092503 64 2 2.6 5.2 0.00 0.00 0.00 75 1010.2
20260506092004 64 1 2.6 3.5 0.00 0.00 0.00 75 1010.2
20260506091503 64 1 2.6 3.5 0.00 0.00 0.00 75 1010.2
20260506091003 64 1 2.6 4.3 0.00 0.00 0.00 75 1010.2
20260506090504 64 2 3.5 4.3 0.00 0.00 0.00 75 1010.2
20260506090004 64 1 2.6 4.3 0.00 0.00 0.00 75 1010.2
20260506085503 64 2 2.6 5.2 0.00 0.00 0.00 75 1010.3
20260506084504 64 2 3.5 5.2 0.00 0.00 0.00 75 1010.3
20260506084003 64 1 3.5 5.2 0.00 0.00 0.00 75 1010.3
20260506083503 64 2 2.6 3.5 0.00 0.00 0.00 75 1010.3
20260506083003 64 1 2.6 3.5 0.00 0.00 0.00 75 1010.4
20260506082504 64 1 2.6 2.6 0.00 0.00 0.00 75 1010.3
20260506082003 64 1 2.6 2.6 0.00 0.00 0.00 75 1010.4
20260506081503 64 1 2.6 2.6 0.00 0.00 0.00 75 1010.5
20260506081003 65 1 2.6 2.6 0.00 0.00 0.00 75 1010.5
20260506080504 65 1 2.6 4.3 0.00 0.00 0.00 75 1010.6
20260506073503 65 1 1.7 5.2 0.00 0.00 0.00 73 1010.6
20260506073004 66 2 2.6 5.2 0.00 0.00 0.00 73 1010.6
20260506072003 66 1 2.6 4.3 0.00 0.00 0.00 73 1010.7
20260506071503 66 1 2.6 2.6 0.00 0.00 0.00 73 1010.8
20260506071003 66 1 2.6 2.6 0.00 0.00 0.00 72 1010.8
20260506070504 66 1 2.6 2.6 0.00 0.00 0.00 72 1010.7
20260506062504 66 2 3.5 4.3 0.00 0.00 0.00 71 1010.9
20260506061004 66 2 2.6 6.1 0.00 0.00 0.00 71 1010.8
20260506060504 66 1 3.5 6.1 0.00 0.00 0.00 71 1011.0
20260506050504 67 1 4.3 7.0 0.00 0.00 0.00 67 1011.3
20260506044503 67 2 3.5 7.8 0.00 0.00 0.00 66 1011.4
20260506044003 68 1 3.5 4.3 0.00 0.00 0.00 66 1011.4
20260506043503 68 1 3.5 4.3 0.00 0.00 0.00 65 1011.4
20260506043004 68 1 3.5 5.2 0.00 0.00 0.00 65 1011.4
20260506042003 68 1 3.5 3.5 0.00 0.00 0.00 64 1011.4
20260506041504 68 1 3.5 6.1 0.00 0.00 0.00 64 1011.5
20260506041004 68 2 3.5 6.1 0.00 0.00 0.00 63 1011.4
20260506040503 68 2 3.5 6.1 0.00 0.00 0.00 63 1011.4
20260506040004 68 2 2.6 4.3 0.00 0.00 0.00 63 1011.4
20260506035503 68 1 3.5 4.3 0.00 0.00 0.00 62 1011.3
20260506035004 69 1 3.5 7.0 0.00 0.00 0.00 61 1011.3
20260506034503 69 1 4.3 7.0 0.00 0.00 0.00 61 1011.3
20260506034004 69 2 3.5 7.0 0.00 0.00 0.00 61 1011.3
20260506033503 69 1 3.5 5.2 0.00 0.00 0.00 60 1011.2
20260506033004 69 2 3.5 5.2 0.00 0.00 0.00 60 1011.3
20260506031503 69 1 4.3 5.2 0.00 0.00 0.00 59 1011.3
20260506031004 69 1 4.3 5.2 0.00 0.00 0.00 59 1011.3
20260506030503 69 1 3.5 5.2 0.00 0.00 0.00 59 1011.4
20260506030003 69 2 3.5 4.3 0.00 0.00 0.00 59 1011.4
20260506025503 69 2 3.5 3.5 0.00 0.00 0.00 58 1011.4
20260506025003 69 1 3.5 5.2 0.00 0.00 0.00 58 1011.4
20260506024504 70 2 3.5 5.2 0.00 0.00 0.00 58 1011.4
20260506024003 69 1 2.6 3.5 0.00 0.00 0.00 58 1011.5
20260506023003 69 1 2.6 3.5 0.00 0.00 0.00 58 1011.5
20260506022504 70 1 2.6 2.6 0.00 0.00 0.00 58 1011.4